This is the latest recevied weather packets stored in our database for station/object WX2P-13. If no packets are shown the sender has not sent any weather packets the latest 10 day(s).
| Time | Temp. | Humidity | Pressure | Rain* | Wind** | Luminosity | Snow |
|---|---|---|---|---|---|---|---|
| 1777775703 | 18.89° C | 92% | 1014.4 hPa | 0 mm | - | 0 W/m² | - |
| 1777775400 | 19.44° C | 92% | 1014.1 hPa | 0 mm | - | 0 W/m² | - |
| 1777775096 | 19.44° C | 92% | 1014.1 hPa | 0 mm | - | 0 W/m² | - |
| 1777767823 | 22.22° C | 88% | 1011.9 hPa | 0 mm | - | 0 W/m² | - |
| 1777767519 | 22.22° C | 88% | 1012 hPa | 0 mm | - | 0 W/m² | - |
| 1777766307 | 22.22° C | 93% | 1011.3 hPa | 0 mm | - | 0 W/m² | - |
| 1777765701 | 22.22° C | 94% | 1011.2 hPa | 0 mm | - | 6 W/m² | - |
| 1777765398 | 22.22° C | 95% | 1011.2 hPa | 0 mm | - | 10 W/m² | - |
| 1777764791 | 22.22° C | 95% | 1011.3 hPa | 0 mm | - | 10 W/m² | - |
| 1777764488 | 22.22° C | 95% | 1011.1 hPa | 0 mm | - | 15 W/m² | - |
| 1777761761 | 22.22° C | 97% | 1010.7 hPa | 0 mm | - | 61 W/m² | - |
| 1777761458 | 22.22° C | 97% | 1010.7 hPa | 0 mm | - | 61 W/m² | - |
| 1777760550 | 22.22° C | 97% | 1010.9 hPa | 0 mm | - | 55 W/m² | - |
| 1777760246 | 22.22° C | 98% | 1010.9 hPa | 0 mm | - | 69 W/m² | - |
| 1777759943 | 22.22° C | 98% | 1010.5 hPa | 0 mm | - | 78 W/m² | - |
| 1777759639 | 22.22° C | 98% | 1010.9 hPa | 0 mm | - | 70 W/m² | - |
| 1777757815 | 21.67° C | 98% | 1009.7 hPa | 0 mm | - | 71 W/m² | - |
| 1777757512 | 21.67° C | 98% | 1009.7 hPa | 0 mm | - | 83 W/m² | - |
| 1777757211 | 21.67° C | 98% | 1009.6 hPa | 0 mm | - | 81 W/m² | - |
| 1777756909 | 22.22° C | 98% | 1009.7 hPa | 0 mm | - | 89 W/m² | - |
| 1777756604 | 21.67° C | 98% | 1009.7 hPa | 0 mm | - | 74 W/m² | - |
| 1777755696 | 22.22° C | 99% | 1010 hPa | 0 mm | - | 72 W/m² | - |
| 1777754484 | 22.22° C | 99% | 1010.4 hPa | 0 mm | - | 65 W/m² | - |
| 1777754181 | 22.22° C | 99% | 1010.7 hPa | 0 mm | - | 94 W/m² | - |
| 1777753573 | 22.22° C | 99% | 1010.5 hPa | 0 mm | - | 118 W/m² | - |
* Rain latest hour (hover to see other rain measurements)
** Current wind speed in m/s (hover to see current wind gust speed)